Flag for Ireland Weather past 2 weeks in Limerick, Ireland

Now
57 °F

Scattered clouds.


Feels Like: 55 °F
Forecast: 51 / 62 °F
Wind: 12 mph from Southwest

Location: Shannon Airport

Current Time: Aug 27, 2015 at 9:33:51 PM

Latest Report: Aug 27, 2015 at 9:00 PM


Visibility: N/A

Pressure: 29.68 "Hg

Humidity: 82%

Dew point: 52 °F

Location of LimerickLocation

Historic Weather in Limerick — Graph

°F

Limerick temperature yesterday

Maximum temperature yesterday: 63 °F (at 1:30 PM)
Minimum temperature yesterday: 54 °F (at 4:00 AM)
Average temperature yesterday: 57 °F

Past Weeks' High & Low Weather Summary

 TemperatureHumidityPressure
High72 °F (Aug 20, 2:30 PM)100% (Aug 13, 1:00 AM)30.21 "Hg (Aug 13, 1:00 AM)
Low45 °F (Aug 13, 5:30 AM)48% (Aug 14, 1:00 PM)29.33 "Hg (Aug 26, 4:00 AM)
Average58 °F82%29.80 "Hg
* Reported Aug 12 8:00 PM — Aug 27 8:30 PM, Limerick, Weather by CustomWeather, © 2015

Note: Actual official high and low records may vary slightly from our data, if they occured in-between our weather recording intervals... More about our weather records

Advertising

Limerick weather history for previous 24 hours

 ConditionsComfort  
Time TempWeatherWind HumidityBarometerVisibility
8:30 PM
Thu, Aug 27
57 °FPassing clouds.20 mph82%29.68 "HgN/A
8:00 PM59 °FPassing clouds.16 mph77%29.65 "HgN/A
7:30 PM59 °FPassing clouds.18 mph77%29.65 "HgN/A
7:00 PM61 °FPassing clouds.21 mph72%29.65 "HgN/A
6:30 PM61 °FPassing clouds.23 mph72%29.62 "HgN/A
6:00 PM63 °FPassing clouds.18 mph68%29.62 "HgN/A
5:30 PM63 °FPartly sunny.24 mph68%29.62 "HgN/A
5:00 PM63 °FScattered clouds.23 mph68%29.62 "HgN/A
4:30 PM63 °FPassing clouds.24 mph64%29.62 "HgN/A
4:00 PM63 °FScattered clouds.22 mph68%29.59 "HgN/A
3:30 PM63 °FScattered clouds.23 mph68%29.59 "HgN/A
3:00 PM61 °FPassing clouds.17 mph77%29.59 "HgN/A
2:30 PM57 °FPassing clouds.15 mph88%29.59 "HgN/A
2:00 PM61 °FSprinkles. Scattered clouds.17 mph72%29.59 "HgN/A
1:30 PM61 °FScattered clouds.18 mph72%29.56 "HgN/A
1:00 PM61 °FPassing clouds.15 mph68%29.56 "HgN/A
12:30 PM61 °FPartly sunny.16 mph68%29.56 "HgN/A
12:00 PM63 °FPassing clouds.18 mph68%29.56 "HgN/A
11:30 AM61 °FPartly sunny.16 mph68%29.56 "HgN/A
11:00 AM61 °FPartly sunny.14 mph68%29.56 "HgN/A
10:30 AM59 °FScattered clouds.15 mph72%29.56 "HgN/A
10:00 AM59 °FPassing clouds.15 mph72%29.56 "HgN/A
9:30 AM57 °FPassing clouds.12 mph77%29.56 "HgN/A
9:00 AM55 °FPassing clouds.12 mph82%29.53 "HgN/A
8:30 AM54 °FPassing clouds.10 mph88%29.53 "HgN/A
8:00 AM52 °FPassing clouds.9 mph88%29.53 "HgN/A
7:30 AM52 °FPassing clouds.9 mph88%29.53 "HgN/A
7:00 AM52 °FPassing clouds.8 mph88%29.53 "HgN/A
6:30 AM52 °FPassing clouds.10 mph88%29.53 "HgN/A
6:00 AM52 °FPassing clouds.9 mph88%29.50 "HgN/A
5:30 AM52 °FPassing clouds.9 mph88%29.53 "HgN/A
5:00 AM52 °FPassing clouds.9 mph88%29.53 "HgN/A
4:30 AM52 °FSprinkles. Passing clouds.9 mph88%29.53 "HgN/A
4:00 AM52 °FPassing clouds.10 mph88%29.53 "HgN/A
3:30 AM54 °FPassing clouds.14 mph88%29.50 "HgN/A
3:00 AM52 °FPassing clouds.12 mph94%29.50 "HgN/A
2:30 AM52 °FPassing clouds.12 mph94%29.50 "HgN/A
2:00 AM52 °FPassing clouds.12 mph94%29.50 "HgN/A
1:30 AM52 °FPassing clouds.12 mph94%29.50 "HgN/A
1:00 AM52 °FPassing clouds.9 mph88%29.50 "HgN/A
12:30 AM52 °FPassing clouds.12 mph94%29.50 "HgN/A
12:00 AM54 °FPassing clouds.13 mph88%29.50 "HgN/A
11:00 PM
Wed, Aug 26
54 °FPartly cloudy.12 mph88%29.50 "HgN/A
10:30 PM54 °FSprinkles. Partly cloudy.13 mph94%29.50 "HgN/A
10:00 PM55 °FSprinkles. Partly cloudy.14 mph82%29.50 "HgN/A
9:30 PM55 °FScattered clouds.16 mph82%29.47 "HgN/A
9:00 PM55 °FBroken clouds.14 mph82%29.47 "HgN/A
Weather by CustomWeather, © 2015

See weather overviewHow to use our weather pages